Location: Fishcreek Rd Observing Site
(41.1865°N, 81.4271°W)
Time: 22:50:51
(UTC-04:00)

Iridium 75 - Visible Passes

Search period start: 15 September 2014 00:00
Search period end: 25 September 2014 00:00
Orbit: 775 x 780 km, 86.4° (Epoch: 15 September)

Date Brightness Start Highest point End Pass type
(mag) Time Alt. Az. Time Alt. Az. Time Alt. Az.
15 Sep 6.7 21:12:39 10° SSW 21:17:45 56° W 21:22:52 10° N visible
16 Sep 5.9 20:39:00 10° S 20:44:12 80° E 20:49:25 10° N visible
16 Sep 9.1 22:23:45 10° W 22:25:34 12° WNW 22:27:24 10° NW visible
17 Sep 6.4 20:05:53 10° SSE 20:10:46 43° E 20:15:41 10° NNE visible
17 Sep 8.5 21:47:44 10° SW 21:51:41 22° WNW 21:55:39 10° NNW visible
18 Sep 9.6 06:38:11 10° NE 06:39:50 11° ENE 06:41:29 10° E visible
18 Sep 7.5 21:13:06 10° SSW 21:17:56 38° W 21:22:47 10° NNW visible
19 Sep 6.3 20:39:07 10° S 20:44:18 71° W 20:49:31 10° N visible
20 Sep 6.0 20:05:41 10° S 20:10:48 63° E 20:15:57 10° N visible
20 Sep 9.0 21:49:03 10° WSW 21:52:00 15° WNW 21:54:57 10° NW visible
21 Sep 9.2 06:36:54 10° NE 06:40:12 17° ENE 06:43:28 10° ESE visible
21 Sep 8.2 21:13:47 10° SW 21:18:09 27° WNW 21:22:33 10° NNW visible
22 Sep 7.0 20:39:26 10° SSW 20:44:27 49° W 20:49:31 10° N visible
23 Sep 6.1 20:05:41 10° S 20:10:53 90° W 20:16:07 10° N visible
23 Sep 9.4 21:51:59 10° WNW 21:52:22 10° WNW 21:52:45 10° WNW visible
24 Sep 8.8 06:36:19 10° NNE 06:40:29 24° ENE 06:44:38 10° SE visible
24 Sep 8.8 21:14:47 10° WSW 21:18:26 19° WNW 21:22:06 10° NNW visible
